STARLINK-3827 (52370 NORAD) Tracking and Keplerian Element Data
This shows tracking and keplerian element data for the satellite.
Feedback or suggestion? Click here.
Element | Value |
Catalog | 52370 |
Name | STARLINK-3827 |
Epoch Orbit | 130 |
Epoch Day | 167.08334491 |
Epoch Year | 2022 |
RAAN | 202.6665 |
Inclination | 53.2137 |
Eccentricity | 0.0003099 |
Argument of Perigee | 21.7044 |
Mean Anonmoly | 283.607 |
Mean Motion | 15.73219465 |
Decay Rate | 0.00082634 |
L1 | 1 52370U 22045AR 22167.08334491 .00082634 00000+0 58683-3 0 9995 |
L2 | 2 52370 53.2137 202.6665 0003099 21.7044 283.6070 15.73219465 1309 |
Live tracking and technical data element details for STARLINK-3827 (NORAD 52370). STARLINK-3827 can be tracked NOW for your location showing map with azimuth and elevation plus other details from your city location.
Track the satellite on the map from your city or location and see movement details for azimuth, elevation, latitude, longitude, range, height, and movement on the map or in text.
IsCatalogInMostPopularTable: catalog: 52370, numindb: 3
Update: records affected: 1
GetName: 52370 STARLINK-3827
Hit Count: updated at: Sat, 25 Jun 2022 05:18:44 GMT